Location: Unspecified
(0.0000°N, 0.0000°E)
Time: 21:48:23
(UTC+02:00)

Ariane H10 - Visible Passes

Search period start: 31 August 2015 00:00
Search period end: 10 September 2015 00:00
Orbit: 253 x 24385 km, 3.8° (Epoch: 30 August)

Date Brightness Start Highest point End Pass type
(mag) Time Alt. Az. Time Alt. Az. Time Alt. Az.
01 Sep 4.8 16:33:19 10° W 21:26:40 84° N 21:31:02 33° E visible
02 Sep 5.0 04:58:17 52° ENE 04:58:17 52° ENE 05:18:17 10° E visible
03 Sep 5.0 22:42:48 10° W 22:58:41 46° WNW 22:58:41 46° WNW visible
04 Sep 4.9 06:25:55 35° W 06:30:41 87° N 11:40:03 10° E visible
06 Sep 4.6 17:13:36 10° W 21:33:53 81° N 21:37:20 40° ENE visible
07 Sep 4.8 05:04:31 61° ENE 05:04:31 61° ENE 05:29:59 10° E visible
08 Sep 5.3 22:51:20 10° W 23:03:48 38° WNW 23:03:48 38° WNW visible
09 Sep 5.1 06:30:58 31° W 06:36:34 89° N 11:55:15 10° E visible
